Location: Temple Hill
(37.3073°N, 88.6303°W)
Time: 17:24:49
(UTC+00:00)

Cosmos 1151 Rocket - Pass Details

Date: 23 November 2020
Orbit: 593 x 615 km, 82.5° (Epoch: 20 January)

Event Time Altitude Azimuth Distance (km) Brightness Sun altitude
Rises 23:27:56 0° 158° (SSE) 2,844 6.4 -9.8°
Reaches altitude 10° 23:30:25 10° 145° (SE) 1,941 5.4 -10.3°
Maximum altitude 23:33:57 25° 89° (E) 1,212 4.0 -10.9°
Drops below altitude 10° 23:37:29 10° 34° (NE) 1,943 5.1 -11.6°
Enters shadow 23:37:37 - 33° (NNE) 1,986 5.2 -11.6°
